Precipitable_Water
1.62 1.91 2.04 1.79 1.43 1.46 1.04 1.10 1.31 1.18 1.23 1.34 1.41 1.31 1.36 1.46 1.27 1.15 1.74 1.88 1.98 1.98 2.03 1.93 1.88 1.79 1.69 1.63 1.57 1.67 1.75 1.76 1.69 1.68 1.68 1.84 1.76 1.63 1.53 1.60 1.80 1.88 2.04 2.02 2.03 1.94 1.82 1.80 1.73
1.49 1.80 1.68 1.58 1.25 1.09 1.00 1.25 1.28 1.41 1.46 1.46 1.54 1.52 1.35 1.19 1.45 1.59 1.60 1.88 1.96 1.98 2.00 1.90 1.88 1.82 1.77 1.67 1.62 1.73 1.80 1.80 1.69 1.72 1.89 1.74 1.86 1.74 1.58 1.64 1.78 1.94 1.99 1.91 1.97 1.94 1.87 1.86 1.89
1.40 1.64 1.36 1.57 1.15 1.11 1.00 1.33 1.35 1.40 1.48 1.46 1.54 1.57 1.66 1.31 1.50 1.57 1.75 1.81 1.94 1.92 1.94 1.85 1.83 1.81 1.85 1.82 1.80 1.78 1.79 1.83 1.66 1.92 1.87 1.73 1.82 1.90 1.62 1.70 1.91 2.06 1.91 1.85 1.96 1.96 2.07 2.01 1.92
1.36 1.62 1.43 1.18 1.20 1.14 1.18 1.32 1.41 1.38 1.45 1.57 1.43 1.33 1.50 1.66 1.62 1.66 1.77 1.84 1.85 1.91 1.85 1.80 1.80 1.82 1.85 1.88 1.83 1.80 1.85 1.84 1.77 1.89 1.85 1.79 1.89 1.97 1.71 1.73 1.84 1.88 1.84 1.79 1.82 1.99 1.98 2.04 1.93
1.74 1.83 1.38 1.19 1.17 1.21 1.29 1.30 1.43 1.31 1.43 1.38 1.42 1.26 1.26 1.59 1.78 1.77 1.75 1.83 1.81 1.96 1.85 1.74 1.79 1.83 1.85 1.86 1.82 1.82 1.86 1.84 1.83 1.89 1.79 1.81 1.89 1.92 1.76 1.73 1.75 1.78 1.84 1.89 1.79 1.95 1.96 1.99 1.96
1.34 1.56 1.21 0.90 1.00 1.13 1.25 1.31 1.34 1.25 1.17 1.24 1.27 1.20 1.24 1.69 1.67 1.78 1.77 1.81 1.88 1.88 1.80 1.74 1.75 1.78 1.81 1.83 1.83 1.85 1.86 1.87 1.95 1.92 1.85 1.80 1.77 1.79 1.82 1.78 1.83 1.81 1.79 1.88 1.92 1.97 2.04 1.95 1.92
1.40 1.38 1.04 0.90 0.94 1.02 1.15 1.33 1.22 1.16 1.17 1.22 1.45 1.11 1.31 1.55 1.62 1.86 1.83 1.88 1.84 1.84 1.75 1.71 1.74 1.75 1.77 1.79 1.85 1.83 1.84 1.84 1.85 1.82 2.02 2.03 1.99 1.90 1.81 1.87 1.87 1.77 1.78 1.81 1.83 1.88 1.97 2.04 2.00
1.65 1.42 1.06 1.00 0.91 0.86 1.13 1.07 1.28 1.26 1.16 1.44 1.47 1.34 1.00 1.40 1.59 1.86 1.82 1.77 1.79 1.79 1.71 1.66 1.70 1.68 1.75 1.79 1.77 1.71 1.73 1.83 1.97 2.03 2.04 2.06 2.06 2.01 1.80 1.70 1.67 1.75 1.91 1.94 1.88 1.85 1.86 1.86 2.01
1.51 1.11 0.99 1.02 1.00 0.91 1.08 1.03 1.01 1.11 1.25 1.38 1.53 1.30 1.33 1.37 1.53 1.55 1.64 1.59 1.70 1.73 1.63 1.63 1.65 1.68 1.73 1.73 1.76 1.89 1.97 2.06 2.03 2.02 2.01 2.02 1.99 1.97 2.01 1.86 1.80 1.81 1.88 2.00 1.93 1.85 1.80 1.85 1.88
1.16 1.14 1.16 1.07 1.09 0.99 1.17 1.10 1.11 1.27 1.09 1.15 1.16 1.36 1.45 1.45 1.43 1.43 1.40 1.57 1.56 1.64 1.59 1.60 1.69 1.67 1.68 1.71 1.69 1.78 1.89 1.94 1.93 2.03 2.00 1.83 1.89 1.97 1.93 1.94 1.84 1.92 1.89 1.95 1.95 1.81 1.83 2.03 2.03
1.29 1.07 1.07 1.10 1.09 1.09 0.96 0.95 1.20 1.08 1.23 1.14 1.11 1.19 1.40 1.44 1.42 1.38 1.39 1.51 1.51 1.63 1.56 1.71 1.75 1.70 1.68 1.79 1.72 1.72 1.79 1.92 2.11 2.11 2.10 1.93 2.01 2.07 1.97 1.80 1.94 2.13 2.09 2.01 2.02 2.03 2.03 2.26 2.26
0.88 0.92 0.98 0.91 1.02 0.99 0.99 1.06 1.03 1.03 0.95 1.27 1.33 1.28 1.38 1.41 1.38 1.36 1.42 1.46 1.49 1.60 1.61 1.77 1.83 1.74 1.73 1.91 1.81 1.75 1.90 2.04 1.99 2.20 2.15 1.98 1.96 1.94 2.06 2.04 2.09 2.08 2.12 2.06 1.99 2.08 2.12 2.22 2.13
0.84 0.77 0.84 0.88 0.85 1.02 1.02 1.01 1.03 1.15 1.08 1.37 1.37 1.38 1.35 1.38 1.46 1.49 1.50 1.49 1.48 1.52 1.67 1.80 1.93 1.97 1.90 1.86 2.02 1.84 1.98 2.05 2.04 2.21 2.23 2.16 2.07 2.05 2.04 2.08 2.05 2.07 2.06 1.94 1.93 2.06 2.15 2.15 2.11
0.81 0.72 0.69 0.73 0.78 0.87 0.81 1.05 1.10 1.14 1.26 1.31 1.35 1.34 1.37 1.39 1.35 1.41 1.46 1.50 1.49 1.52 1.60 1.85 1.80 1.92 2.05 2.07 2.06 1.91 2.00 2.08 2.11 2.15 2.29 2.26 2.14 2.19 2.21 2.13 2.16 2.14 2.10 2.09 2.05 2.02 2.13 2.13 2.07
0.77 0.62 0.64 0.72 0.77 0.83 0.88 0.86 1.11 1.34 1.46 1.17 1.25 1.35 1.43 1.44 1.44 1.40 1.46 1.54 1.56 1.56 1.66 1.74 1.88 1.97 1.89 2.00 1.93 1.96 2.02 2.02 1.98 2.11 2.36 2.23 2.14 2.22 2.22 2.29 2.22 2.13 2.08 2.11 2.08 2.01 2.17 2.07 1.99
0.53 0.58 0.59 0.66 0.72 0.72 0.73 0.65 0.99 1.08 1.35 1.04 1.22 1.28 1.35 1.40 1.47 1.48 1.51 1.55 1.57 1.57 1.56 1.68 1.83 1.87 1.91 1.91 1.97 1.97 1.96 1.94 1.88 2.18 2.12 2.04 2.13 2.18 2.28 2.22 2.22 2.19 2.11 2.07 1.95 2.01 2.06 1.99 1.95
0.51 0.53 0.58 0.69 0.75 0.69 0.78 0.69 1.01 1.06 1.10 1.38 1.41 1.28 1.29 1.37 1.45 1.52 1.56 1.57 1.56 1.56 1.57 1.54 1.64 1.75 1.94 2.03 1.97 1.96 1.97 1.99 1.93 2.06 2.20 2.13 2.07 2.21 2.36 2.27 2.24 2.32 2.06 2.03 2.01 1.94 2.08 1.94 1.94
0.56 0.52 0.66 0.64 0.70 0.69 0.61 0.69 0.96 1.24 1.17 1.07 1.31 1.21 1.18 1.30 1.41 1.58 1.63 1.65 1.64 1.63 1.66 1.62 1.68 1.73 1.94 2.10 2.02 1.93 1.96 1.97 1.95 2.00 2.06 2.15 2.20 2.20 2.23 2.29 2.25 2.28 2.19 1.99 2.02 1.97 2.06 2.03 1.92
0.71 0.69 0.65 0.65 0.75 0.65 0.61 0.64 0.74 1.00 1.34 0.87 0.96 1.25 1.54 1.24 1.48 1.64 1.75 1.85 1.77 1.62 1.66 1.70 1.75 1.84 1.94 2.01 1.98 1.77 1.86 1.95 1.90 1.96 2.06 2.19 2.19 2.20 2.21 2.24 2.28 2.31 2.19 2.03 2.05 1.98 1.91 2.00 2.10
0.61 0.56 0.48 0.55 0.65 0.57 0.54 0.63 0.77 0.75 1.04 0.89 0.95 0.99 1.15 1.29 1.44 1.61 1.75 1.80 1.84 1.71 1.65 1.68 1.81 1.89 1.95 2.08 2.03 1.88 1.83 1.99 1.98 2.12 2.22 2.22 2.20 2.21 2.17 2.19 2.25 2.23 2.24 2.16 2.02 1.99 1.89 2.02 2.07
0.49 0.47 0.59 0.62 0.64 0.62 0.54 0.54 0.68 0.73 0.87 0.87 0.83 0.85 1.10 1.30 1.59 1.79 2.17 1.86 1.81 1.66 1.55 1.73 1.97 1.95 2.04 2.13 2.12 2.06 1.88 1.90 1.97 2.20 2.17 2.12 2.23 2.25 2.24 2.29 2.20 2.19 2.29 2.18 2.08 1.96 1.88 1.90 2.07
0.39 0.52 0.58 0.51 0.42 0.40 0.60 0.45 0.69 0.72 0.74 0.91 1.02 1.05 1.28 1.32 1.39 1.56 1.59 1.60 1.75 1.72 1.69 1.85 2.02 2.14 2.12 2.18 2.09 2.02 1.82 1.67 1.94 2.07 2.11 2.11 2.21 2.23 2.22 2.22 2.20 2.31 2.24 2.13 2.14 2.00 1.86 1.91 1.88
0.46 0.61 0.56 0.47 0.41 0.45 0.46 0.50 0.75 0.79 0.80 0.85 0.86 1.00 1.27 1.57 1.40 1.37 1.48 1.61 1.65 1.68 1.70 1.92 2.00 2.10 2.14 2.12 2.09 2.03 1.91 1.96 2.11 2.07 2.06 2.06 2.10 2.07 2.07 2.09 2.18 2.21 2.15 2.13 2.14 2.00 1.83 1.90 1.93
0.53 0.51 0.48 0.39 0.39 0.36 0.52 0.55 0.77 0.71 0.74 0.68 0.72 1.08 1.13 1.11 1.17 1.28 1.39 1.57 1.57 1.61 1.66 1.82 1.86 1.97 2.02 2.04 2.00 1.93 1.94 2.06 2.08 2.08 1.96 1.95 1.95 2.01 2.05 2.24 2.26 2.32 2.20 2.12 2.15 2.00 1.82 1.77 1.90
0.45 0.44 0.32 0.29 0.34 0.53 0.68 0.52 0.66 0.65 0.69 0.59 0.62 0.70 0.98 1.07 1.12 1.18 1.24 1.38 1.48 1.44 1.61 1.69 1.78 1.74 1.86 1.87 1.85 1.95 2.06 2.17 2.06 2.01 1.96 1.92 2.00 2.05 2.15 2.22 2.28 2.25 2.22 2.16 2.07 1.96 1.98 1.89 1.85
0.37 0.40 0.31 0.32 0.45 0.53 0.63 0.49 0.53 0.65 0.58 0.54 0.49 0.54 1.01 1.17 1.10 1.22 1.33 1.39 1.55 1.46 1.62 1.61 1.65 1.68 1.75 1.73 1.82 2.01 2.06 2.14 2.14 2.02 2.07 2.29 2.09 2.00 2.13 2.24 2.28 2.27 2.26 2.17 2.11 2.07 2.02 1.97 1.86
0.42 0.32 0.38 0.34 0.36 0.36 0.52 0.65 0.62 0.66 0.66 0.61 0.65 0.69 0.74 1.13 1.17 1.27 1.38 1.42 1.49 1.52 1.55 1.56 1.55 1.62 1.70 1.77 1.98 2.00 2.01 2.06 2.08 1.89 2.25 2.05 2.06 1.97 2.13 2.29 2.26 2.25 2.27 2.23 2.18 2.06 1.96 2.03 2.03
0.39 0.47 0.37 0.34 0.27 0.26 0.35 0.43 0.49 0.56 0.59 0.57 0.56 0.53 0.77 1.10 1.23 1.32 1.42 1.45 1.48 1.52 1.59 1.64 1.61 1.61 1.71 1.82 1.90 1.89 1.94 2.03 2.15 2.13 1.87 1.89 1.96 1.93 2.05 2.06 2.11 2.25 2.23 2.25 2.17 2.08 2.09 2.04 2.04
0.25 0.30 0.38 0.44 0.40 0.35 0.39 0.44 0.63 0.63 0.55 0.51 0.52 0.64 0.68 1.08 1.19 1.29 1.40 1.49 1.46 1.51 1.61 1.62 1.63 1.66 1.75 1.78 1.89 1.84 1.92 1.96 2.12 1.93 1.85 1.72 1.92 2.02 1.84 1.74 1.92 2.09 2.14 2.20 2.13 2.13 2.10 1.99 1.95
0.28 0.27 0.36 0.37 0.32 0.39 0.33 0.36 0.58 0.60 0.56 0.56 0.53 0.73 0.84 1.07 1.19 1.29 1.34 1.45 1.37 1.46 1.55 1.58 1.62 1.71 1.70 1.84 1.84 1.91 1.95 1.95 2.03 1.92 1.64 1.69 1.70 1.91 1.93 1.84 1.67 2.02 2.01 2.15 2.07 2.07 2.09 2.05 2.02
Wind_Speed
1 0 0 1 1 1 6 5 5 5 3 6 7 8 10 3 3 7 14 13 15 15 14 12 12 13 13 12 12 11 10 10 9 9 9 8 8 8 8 7 8 8 9 9 7 6 6 6 6
0 1 1 2 3 2 5 7 6 5 3 5 8 9 6 9 11 14 13 15 14 14 13 12 12 13 12 12 11 10 9 8 8 8 7 7 7 7 7 7 7 7 8 9 9 7 6 5 5
1 1 1 2 3 2 5 6 4 3 3 2 5 7 3 10 10 9 14 14 13 13 12 12 12 12 12 11 11 9 8 7 7 6 6 5 5 5 6 6 6 6 6 7 8 7 6 5 5
1 1 1 3 4 7 8 7 6 3 4 3 4 6 7 5 7 11 13 13 13 12 12 12 12 12 11 11 10 9 7 6 5 5 5 4 3 4 4 4 4 4 5 6 6 7 7 6 5
3 2 6 3 8 7 7 5 6 4 5 7 6 3 4 4 8 10 12 11 11 11 11 11 11 11 10 10 9 8 7 6 5 4 4 3 3 3 3 3 3 4 4 4 5 5 5 5 4
2 2 2 6 9 7 7 5 5 6 4 5 7 5 3 5 10 10 10 10 10 10 11 11 10 9 9 9 8 8 7 6 5 4 3 3 3 2 2 3 3 2 2 3 2 3 3 3 3
3 4 4 6 7 7 5 5 3 4 5 5 6 6 3 8 10 11 10 10 9 10 10 10 10 9 8 9 8 8 7 5 4 3 1 3 3 5 4 3 2 1 1 1 1 1 1 1 0
5 5 3 5 6 8 5 5 6 5 6 5 1 1 5 9 11 10 10 8 10 10 9 10 9 9 9 9 9 8 6 5 4 2 2 2 3 3 7 5 4 2 1 1 2 2 2 2 2
2 1 4 2 1 5 5 4 3 4 6 2 6 5 8 10 11 10 10 9 10 10 9 10 9 9 8 9 9 8 7 5 4 2 1 1 1 2 5 7 4 3 3 3 2 2 2 1 1
2 3 3 6 5 5 5 2 4 3 3 3 5 7 8 9 10 10 10 11 10 10 9 10 9 8 9 9 9 9 7 6 5 4 3 1 1 1 4 6 6 5 5 5 5 5 4 4 3
4 6 6 6 3 5 3 3 8 3 3 1 4 5 6 8 9 10 11 11 10 10 9 10 10 9 9 8 9 9 8 7 6 5 4 3 2 2 2 5 6 5 6 5 6 6 7 5 3
3 3 1 2 3 3 4 1 3 3 4 3 4 5 6 7 8 10 11 11 11 11 10 10 11 9 9 9 8 10 9 8 7 7 5 3 3 2 3 4 6 6 4 6 5 6 6 8 6
9 5 5 5 5 3 4 2 1 6 2 4 4 5 6 6 7 8 9 10 12 12 12 11 11 10 9 10 9 10 10 9 8 8 7 4 3 4 3 4 4 5 6 7 6 6 5 6 5
5 5 7 6 7 6 5 2 3 5 2 3 4 4 6 5 6 7 9 10 11 12 13 13 13 12 11 11 10 9 11 11 9 8 8 8 5 5 5 5 5 7 7 6 5 5 5 5 4
8 8 7 9 8 7 6 6 5 8 10 4 6 5 6 7 7 6 8 10 11 12 13 13 13 13 14 12 14 12 11 11 10 10 9 8 7 7 7 6 6 5 4 5 5 4 4 2 2
10 11 11 10 8 10 9 7 9 9 12 7 8 6 7 6 8 7 8 9 10 12 13 13 14 15 15 15 14 16 15 12 13 11 10 10 9 9 7 6 6 5 5 4 5 4 2 3 4
9 12 6 11 10 8 10 8 9 13 13 10 8 7 8 8 9 9 9 10 11 11 12 13 14 15 17 16 16 15 16 15 14 14 13 12 11 11 10 9 8 8 6 5 6 6 5 4 5
10 9 8 11 8 9 12 12 13 13 11 9 14 11 9 10 11 11 10 12 12 11 13 14 15 16 16 18 17 17 17 18 16 14 13 12 11 11 11 10 10 8 8 7 7 7 6 5 5
11 9 11 11 6 7 12 12 10 9 17 8 11 11 11 12 12 12 12 13 12 9 12 15 15 16 16 15 17 18 17 19 18 16 14 12 12 12 12 11 11 10 10 8 6 8 7 6 4
7 7 10 5 7 8 10 10 11 9 15 11 12 12 15 15 14 13 18 12 10 13 11 13 16 17 17 16 16 17 20 19 18 15 13 12 12 13 13 12 11 12 11 9 7 8 6 5 4
11 11 4 9 10 11 10 12 8 17 17 15 12 14 16 14 13 15 14 9 12 12 11 13 15 17 18 20 18 18 19 19 17 14 13 12 12 12 12 12 13 12 12 11 9 8 7 5 3
13 10 7 7 10 10 11 12 10 12 17 15 12 12 12 12 10 10 9 8 11 11 10 11 12 15 16 16 17 17 19 18 15 13 11 10 10 10 11 11 11 10 11 12 11 9 9 7 5
13 6 8 10 12 14 14 12 8 12 9 6 12 17 6 11 5 7 8 8 8 8 9 10 11 12 13 14 15 16 17 16 13 12 11 10 10 11 11 10 10 10 12 13 12 10 11 8 6
15 11 9 10 11 12 10 7 8 10 11 5 7 10 7 5 3 4 5 5 7 7 8 8 8 9 11 12 14 15 15 14 12 11 10 10 9 9 10 9 9 9 12 14 13 11 11 10 7
16 14 11 12 12 1 11 9 13 16 10 8 7 6 6 5 5 5 6 7 7 7 7 6 8 8 10 13 13 13 13 13 12 11 10 9 8 7 7 8 8 8 9 12 14 12 10 10 9
16 17 14 9 9 11 9 7 4 3 5 7 9 7 5 6 5 5 6 8 7 7 7 7 9 10 11 12 11 11 11 10 10 10 9 9 7 5 5 5 7 8 10 12 13 12 11 10 10
17 16 17 19 19 18 5 5 5 12 4 3 3 7 7 7 7 6 6 8 8 8 7 7 10 11 11 10 10 10 9 9 9 8 7 8 8 5 4 4 6 7 9 10 11 11 12 11 10
19 16 13 13 16 13 6 8 9 11 8 8 8 10 7 7 6 6 7 8 10 10 9 9 11 12 12 11 10 10 9 8 6 6 3 4 7 7 4 4 3 7 7 8 10 10 10 10 10
16 19 19 17 15 15 10 11 7 12 5 7 8 7 8 7 6 5 6 7 10 11 10 10 10 11 11 11 11 9 9 8 6 5 4 3 3 5 5 4 5 6 7 8 8 9 9 10 10
20 18 19 14 14 15 13 7 9 8 10 11 6 6 3 4 4 5 5 6 9 11 11 11 10 11 11 11 11 10 9 7 5 5 3 3 1 3 4 3 5 5 6 6 7 7 8 8 9
Wind_Direction
138 46 91 328 88 43 85 92 98 111 80 76 66 94 59 79 82 116 134 136 142 145 145 143 146 146 144 143 139 133 126 118 116 115 114 105 97 93 94 93 91 79 73 57 72 107 102 99 98
314 347 208 88 96 80 95 90 74 105 147 106 86 90 59 75 100 121 131 138 141 145 145 145 146 147 147 146 145 140 133 125 122 123 120 108 100 92 91 94 93 84 72 58 72 98 100 96 98
128 114 195 261 94 118 93 109 136 97 107 113 80 83 84 104 112 121 134 140 141 145 145 145 146 147 149 149 150 147 142 136 133 130 129 121 106 96 94 97 90 89 71 64 76 79 90 92 94
143 113 10 92 115 94 109 113 120 69 100 134 128 77 95 112 109 131 137 142 144 146 146 147 149 151 152 154 155 154 151 145 145 143 142 135 125 109 99 102 95 85 77 69 81 77 80 88 91
132 129 86 135 130 86 87 101 133 140 82 62 107 88 109 122 131 139 149 146 152 152 153 153 153 155 157 159 161 161 158 153 150 150 154 155 146 129 121 113 104 90 86 76 83 74 76 79 91
291 302 135 95 102 103 101 107 86 99 72 97 93 108 110 162 154 152 158 158 159 161 163 162 161 162 164 166 167 166 163 159 155 147 157 187 186 180 158 140 123 103 84 80 86 76 70 72 86
18 127 191 113 113 104 108 108 89 81 99 75 118 84 137 168 162 157 156 161 167 169 168 171 172 172 174 173 173 173 173 171 169 182 190 182 216 223 205 190 164 145 105 87 83 66 38 356 234
230 127 70 97 139 111 121 93 69 108 86 95 125 299 154 167 167 163 161 166 172 172 175 178 176 177 177 178 179 178 178 173 179 190 198 227 218 220 208 203 196 202 246 295 258 263 301 319 253
207 3 120 178 93 137 122 111 47 103 112 83 49 132 143 159 172 180 173 173 173 174 178 180 181 181 183 184 183 180 182 181 182 183 161 134 177 192 200 202 214 248 261 262 271 248 268 301 249
5 172 129 150 158 137 137 134 95 154 126 90 61 117 148 162 181 188 187 176 180 178 186 186 187 189 191 193 192 195 196 201 205 206 189 165 184 234 213 217 237 254 260 261 259 258 266 269 254
158 164 236 93 117 112 112 99 112 48 91 89 142 161 166 174 185 192 189 194 193 191 195 197 195 194 198 201 202 205 207 213 216 217 212 226 264 240 222 226 243 256 256 266 259 258 260 241 252
205 223 131 191 205 181 124 201 49 93 30 107 129 158 172 181 189 196 197 201 202 201 205 198 201 206 207 203 211 215 213 215 225 222 217 225 239 242 229 240 250 261 256 267 267 259 276 301 277
233 222 226 233 214 257 215 153 175 358 81 124 125 144 163 185 193 203 210 207 208 209 208 209 206 209 210 215 221 221 219 220 225 224 222 228 233 241 250 262 260 269 269 258 258 259 268 287 273
252 239 222 218 224 236 242 236 282 231 278 150 163 186 189 190 192 201 214 219 216 216 217 217 218 219 219 222 227 226 217 230 228 226 232 240 244 250 255 267 272 280 268 248 247 257 275 275 260
245 233 235 225 231 254 234 264 333 287 260 202 211 220 211 206 206 212 216 220 222 221 221 224 223 224 226 236 235 233 229 233 232 240 230 239 249 256 257 267 276 281 265 247 224 257 263 263 216
239 239 239 232 239 255 257 262 313 264 247 212 224 220 218 223 217 221 225 225 228 228 224 226 231 233 232 240 241 236 238 238 235 228 236 250 251 258 265 264 268 269 260 244 238 242 243 240 238
219 237 248 234 245 249 255 241 234 246 249 224 245 228 224 232 233 230 230 229 229 231 230 233 238 240 236 240 241 241 237 235 233 236 245 250 256 261 265 266 268 257 253 252 241 241 246 255 252
233 238 230 254 221 258 266 267 228 242 252 232 230 237 230 238 242 235 240 235 230 234 241 242 245 243 241 243 245 245 239 235 235 237 241 248 252 258 265 267 262 256 250 252 247 233 237 245 261
238 215 216 249 211 252 266 262 247 253 228 247 255 253 216 244 246 241 245 241 237 241 245 243 245 240 241 242 238 242 240 233 234 236 241 249 256 260 261 263 258 256 245 242 245 225 235 242 257
243 220 243 242 267 274 269 270 284 269 250 256 251 247 244 242 239 242 238 230 238 253 251 247 244 242 237 242 243 246 234 235 231 238 237 250 258 259 260 260 259 259 238 232 229 218 224 227 245
233 237 279 261 256 259 264 263 297 295 273 286 260 266 254 248 237 255 190 245 247 252 254 251 247 243 238 247 247 243 232 229 232 242 244 256 256 259 258 260 264 255 227 227 222 216 212 208 227
229 228 239 261 275 273 248 284 268 270 260 253 289 312 273 246 239 235 252 250 241 254 260 253 252 243 240 239 235 232 222 219 231 238 246 252 255 260 262 263 262 241 225 219 218 216 213 210 206
229 229 262 268 266 285 270 272 257 286 262 273 302 286 295 260 229 256 257 250 253 259 259 256 254 240 234 229 221 212 208 217 231 232 243 249 256 261 260 263 253 240 225 213 213 217 211 209 204
231 252 260 266 259 261 307 329 208 264 240 274 312 260 251 312 323 293 284 263 264 266 259 250 238 225 217 208 198 198 208 218 217 232 236 247 253 258 260 253 246 235 221 213 212 208 207 210 211
230 242 257 255 241 292 351 332 241 289 221 255 273 303 271 298 293 285 274 254 255 256 231 233 215 206 189 185 188 204 218 221 222 226 237 245 248 257 260 250 237 225 208 202 200 207 211 213 214
221 234 243 254 277 274 264 287 298 233 294 303 305 280 253 263 264 271 269 258 236 233 219 223 204 191 188 191 205 215 218 219 221 230 242 229 252 261 254 248 227 216 207 205 207 212 213 213 216
233 228 245 268 282 293 255 216 14 290 331 336 317 295 281 243 254 263 268 254 234 216 216 209 194 194 194 204 209 214 219 222 228 251 241 256 250 252 249 247 221 207 203 204 206 209 213 219 221
235 238 236 246 267 276 305 313 301 272 272 288 306 311 271 241 243 261 270 247 228 219 212 205 201 203 207 213 209 218 218 213 217 214 260 276 240 240 242 239 228 208 203 205 207 212 215 220 223
223 237 246 264 260 274 286 298 247 260 255 288 298 311 307 219 250 265 272 235 218 213 203 202 204 205 212 212 212 210 216 215 213 233 253 284 255 233 225 241 224 217 212 209 210 216 218 223 225
237 231 238 243 253 262 278 261 295 292 293 289 289 320 309 232 241 260 268 215 209 206 205 204 205 203 205 206 207 206 209 212 227 237 249 264 261 221 210 222 227 220 218 220 215 219 221 225 226